Stündliche Wetter Aavasaksa

Heute, 21 Juni, Montag

Zeit Temperatur Niederschläge Wind Luftdruck Luftfeuchtigkeit
00:00 +10°C° 0 mm 1 m/S 753 mmHg 92%
01:00 +10°C° 0 mm 1 m/S 753 mmHg 94%
02:00 +9°C° 0 mm 1 m/S 753 mmHg 95%
03:00 +10°C° 0 mm 1 m/S 753 mmHg 93%
04:00 +11°C° 0 mm 1 m/S 753 mmHg 90%
05:00 +11°C° 0 mm 1 m/S 753 mmHg 88%
06:00 +12°C° 0 mm 1 m/S 752 mmHg 88%
07:00 +12°C° 0 mm 2 m/S 752 mmHg 88%
08:00 +11°C° 0 mm 3 m/S 751 mmHg 88%
09:00 +13°C° 1.2 mm 2 m/S 751 mmHg 88%
10:00 +14°C° 1.2 mm 2 m/S 750 mmHg 89%
11:00 +15°C° 1.2 mm 2 m/S 750 mmHg 89%
12:00 +15°C° 4.5 mm 2 m/S 749 mmHg 92%
13:00 +15°C° 4.5 mm 2 m/S 749 mmHg 95%
14:00 +16°C° 4.5 mm 3 m/S 748 mmHg 98%
15:00 +17°C° 2 mm 3 m/S 748 mmHg 96%
16:00 +18°C° 2 mm 3 m/S 747 mmHg 94%
17:00 +19°C° 2 mm 3 m/S 747 mmHg 92%
18:00 +18°C° 0 mm 2 m/S 747 mmHg 93%
19:00 +17°C° 0 mm 2 m/S 747 mmHg 94%
20:00 +16°C° 0 mm 2 m/S 748 mmHg 95%
21:00 +15°C° 0 mm 2 m/S 748 mmHg 96%
22:00 +15°C° 0 mm 1 m/S 749 mmHg 97%
23:00 +14°C° 0 mm 1 m/S 749 mmHg 98%

Morgen, 22 Juni, Dienstag

Zeit Temperatur Niederschläge Wind Luftdruck Luftfeuchtigkeit
00:00 +14°C° 0.1 mm 1 m/S 749 mmHg 98%
01:00 +14°C° 0.1 mm 1 m/S 750 mmHg 98%
02:00 +13°C° 0.1 mm 1 m/S 750 mmHg 98%
03:00 +13°C° 0 mm 1 m/S 750 mmHg 97%
04:00 +14°C° 0 mm 1 m/S 750 mmHg 95%
05:00 +14°C° 0 mm 1 m/S 751 mmHg 93%
06:00 +14°C° 0 mm 1 m/S 751 mmHg 92%
07:00 +14°C° 0 mm 1 m/S 751 mmHg 90%
08:00 +15°C° 0 mm 2 m/S 752 mmHg 89%
09:00 +15°C° 0 mm 1 m/S 752 mmHg 87%
10:00 +15°C° 0 mm 1 m/S 752 mmHg 84%
11:00 +16°C° 0 mm 1 m/S 752 mmHg 82%
12:00 +15°C° 0.2 mm 1 m/S 752 mmHg 84%
13:00 +15°C° 0.2 mm 2 m/S 752 mmHg 86%
14:00 +15°C° 0.2 mm 2 m/S 752 mmHg 88%
15:00 +15°C° 0.4 mm 2 m/S 752 mmHg 88%
16:00 +14°C° 0.4 mm 2 m/S 752 mmHg 89%
17:00 +14°C° 0.4 mm 2 m/S 751 mmHg 90%
18:00 +14°C° 0.2 mm 2 m/S 751 mmHg 91%
19:00 +14°C° 0.2 mm 2 m/S 751 mmHg 92%
20:00 +14°C° 0.2 mm 2 m/S 752 mmHg 94%
21:00 +12°C° 0 mm 3 m/S 752 mmHg 93%
22:00 +12°C° 0 mm 3 m/S 753 mmHg 93%
23:00 +11°C° 0 mm 4 m/S 753 mmHg 92%

übermorgen, 23 Juni, Mittwoch

Zeit Temperatur Niederschläge Wind Luftdruck Luftfeuchtigkeit
00:00 +10°C° 0 mm 4 m/S 754 mmHg 92%
01:00 +9°C° 0 mm 5 m/S 754 mmHg 91%
02:00 +8°C° 0 mm 5 m/S 755 mmHg 91%
03:00 +8°C° 0 mm 5 m/S 755 mmHg 88%
04:00 +8°C° 0 mm 5 m/S 755 mmHg 85%
05:00 +8°C° 0 mm 4 m/S 755 mmHg 82%
06:00 +10°C° 0 mm 4 m/S 755 mmHg 76%
07:00 +11°C° 0 mm 4 m/S 756 mmHg 70%
08:00 +12°C° 0 mm 5 m/S 756 mmHg 64%
09:00 +13°C° 0 mm 4 m/S 756 mmHg 62%
10:00 +14°C° 0 mm 4 m/S 756 mmHg 59%
11:00 +16°C° 0 mm 3 m/S 756 mmHg 56%
12:00 +17°C° 0 mm 3 m/S 756 mmHg 55%
13:00 +17°C° 0 mm 3 m/S 756 mmHg 53%
14:00 +18°C° 0 mm 2 m/S 756 mmHg 52%
15:00 +18°C° 0 mm 2 m/S 756 mmHg 50%
16:00 +19°C° 0 mm 2 m/S 756 mmHg 49%
17:00 +20°C° 0 mm 1 m/S 756 mmHg 47%
18:00 +19°C° 0 mm 1 m/S 756 mmHg 52%
19:00 +19°C° 0 mm 1 m/S 756 mmHg 56%
20:00 +19°C° 0 mm 1 m/S 756 mmHg 61%
21:00 +16°C° 0 mm 1 m/S 757 mmHg 69%
22:00 +14°C° 0 mm 1 m/S 757 mmHg 77%
23:00 +12°C° 0 mm 2 m/S 757 mmHg 85%

24 Juni, Donnerstag

Zeit Temperatur Niederschläge Wind Luftdruck Luftfeuchtigkeit
00:00 +10°C° 0 mm 2 m/S 757 mmHg 88%
01:00 +10°C° 0 mm 2 m/S 757 mmHg 90%
02:00 +9°C° 0 mm 2 m/S 757 mmHg 93%
03:00 +10°C° 0 mm 2 m/S 757 mmHg 89%
04:00 +12°C° 0 mm 2 m/S 757 mmHg 84%
05:00 +13°C° 0 mm 2 m/S 757 mmHg 80%
06:00 +14°C° 0 mm 2 m/S 757 mmHg 73%
07:00 +16°C° 0 mm 3 m/S 757 mmHg 66%
08:00 +17°C° 0 mm 3 m/S 757 mmHg 60%
09:00 +18°C° 0 mm 3 m/S 757 mmHg 54%
10:00 +19°C° 0 mm 3 m/S 757 mmHg 48%
11:00 +21°C° 0 mm 3 m/S 757 mmHg 42%
12:00 +21°C° 0 mm 3 m/S 756 mmHg 39%
13:00 +22°C° 0 mm 3 m/S 756 mmHg 36%
14:00 +24°C° 0 mm 3 m/S 756 mmHg 33%
15:00 +24°C° 0 mm 3 m/S 756 mmHg 33%
16:00 +23°C° 0 mm 4 m/S 756 mmHg 34%
17:00 +23°C° 0 mm 4 m/S 756 mmHg 35%
18:00 +21°C° 0 mm 4 m/S 756 mmHg 44%
19:00 +19°C° 0 mm 3 m/S 756 mmHg 53%
20:00 +17°C° 0 mm 3 m/S 756 mmHg 61%
21:00 +16°C° 0 mm 3 m/S 755 mmHg 66%
22:00 +15°C° 0 mm 2 m/S 755 mmHg 71%
23:00 +14°C° 0 mm 2 m/S 755 mmHg 76%

25 Juni, Freitag

Zeit Temperatur Niederschläge Wind Luftdruck Luftfeuchtigkeit
00:00 +14°C° 0 mm 2 m/S 755 mmHg 76%
01:00 +14°C° 0 mm 2 m/S 755 mmHg 76%
02:00 +14°C° 0 mm 1 m/S 754 mmHg 76%
03:00 +14°C° 0 mm 1 m/S 754 mmHg 77%
04:00 +14°C° 0 mm 1 m/S 754 mmHg 78%
05:00 +14°C° 0 mm 1 m/S 753 mmHg 79%
06:00 +15°C° 0 mm 2 m/S 753 mmHg 76%
07:00 +15°C° 0 mm 2 m/S 753 mmHg 74%
08:00 +16°C° 0 mm 2 m/S 753 mmHg 72%
09:00 +16°C° 0.2 mm 2 m/S 753 mmHg 73%
10:00 +16°C° 0.2 mm 2 m/S 752 mmHg 75%
11:00 +16°C° 0.2 mm 2 m/S 752 mmHg 76%
12:00 +16°C° 0.5 mm 2 m/S 752 mmHg 80%
13:00 +15°C° 0.5 mm 2 m/S 752 mmHg 85%
14:00 +15°C° 0.5 mm 2 m/S 751 mmHg 89%
15:00 +14°C° 1.4 mm 2 m/S 751 mmHg 91%
16:00 +14°C° 1.4 mm 2 m/S 751 mmHg 94%
17:00 +13°C° 1.4 mm 2 m/S 750 mmHg 97%
18:00 +12°C° 0.6 mm 3 m/S 750 mmHg 96%
19:00 +12°C° 0.6 mm 4 m/S 750 mmHg 95%
20:00 +10°C° 0.6 mm 5 m/S 750 mmHg 94%
21:00 +10°C° 0.3 mm 5 m/S 751 mmHg 93%
22:00 +9°C° 0.3 mm 5 m/S 751 mmHg 92%
23:00 +9°C° 0.3 mm 5 m/S 752 mmHg 91%

26 Juni, Samstag

Zeit Temperatur Niederschläge Wind Luftdruck Luftfeuchtigkeit
00:00 +8°C° 0 mm 5 m/S 753 mmHg 90%
01:00 +8°C° 0 mm 4 m/S 753 mmHg 90%
02:00 +8°C° 0 mm 4 m/S 754 mmHg 89%
03:00 +8°C° 0 mm 4 m/S 754 mmHg 87%
04:00 +9°C° 0 mm 3 m/S 754 mmHg 86%
05:00 +9°C° 0 mm 3 m/S 754 mmHg 84%
06:00 +10°C° 0 mm 3 m/S 754 mmHg 75%
07:00 +11°C° 0 mm 3 m/S 754 mmHg 67%
08:00 +12°C° 0 mm 3 m/S 754 mmHg 58%
09:00 +12°C° 0 mm 3 m/S 754 mmHg 56%
10:00 +13°C° 0 mm 3 m/S 754 mmHg 53%
11:00 +13°C° 0 mm 3 m/S 754 mmHg 51%
12:00 +13°C° 0 mm 3 m/S 754 mmHg 50%
13:00 +14°C° 0 mm 3 m/S 754 mmHg 49%
14:00 +15°C° 0 mm 2 m/S 754 mmHg 48%
15:00 +15°C° 0 mm 2 m/S 754 mmHg 48%
16:00 +15°C° 0 mm 2 m/S 754 mmHg 48%
17:00 +15°C° 0 mm 2 m/S 754 mmHg 48%
18:00 +15°C° 0 mm 1 m/S 754 mmHg 50%
19:00 +15°C° 0 mm 1 m/S 754 mmHg 53%
20:00 +14°C° 0 mm 1 m/S 754 mmHg 56%
21:00 +13°C° 0 mm 1 m/S 754 mmHg 61%
22:00 +10°C° 0 mm 0 m/S 754 mmHg 67%
23:00 +9°C° 0 mm 0 m/S 754 mmHg 72%
Mehr zeigen

Wir brauchen deine Erlaubnis

Meteoprog und unser Service Anbieter werden persönliche Daten aufbewahren, so wie Cookies, Geräte Bezeichnung oder ähnliche Technologien von deinem Gerät und Prozess, so wie Persönliche Daten Inhalte und Werbungen, genauso wie social Media und den Verkehr zu analysieren.

  • Aufbewahrung und/oder Zugang zu deiner Geräte Informationen.

    Cookies, Geräte Bezeichnung oder andere Informationen, können aufbewahrt oder Zugang zu deinem Gerät erhalten, für den Grund, der oben angegeben wird.

  • Personalisierte Werbung und Inhalte, Messungen, Einblick in das Publikum und Produkt Entwicklung.

    Werbungen und Inhalte können personalisiert werden, basierend auf ein Profil. Mehr Daten können besser personalisierte Werbungen und Inhalte hinzufügen. Werbung und Inhalte können gezeigt und gemessen werden. Einblicke über das Publikum, welche die Werbung gesehen haben und den Inhalt, können abgeleitet werden. So wie Daten können genutzt werden, um es zu verbessern oder die Benutzer Erfahrung zu verbessern das System und die Software.

Wenn du “Ich stimme zu” klickst, erlaubst du uns, die Cookies zu benutzen die Geräte Bezeichnung, den Web oder ähnliche Technologien zu benutzen. Deine Settings, können in deinem Gerät bei deinem Browser geändert werden.

Für den bestimmten Zweck, berechtigten Interessen beruhen darauf, mehr als auf den Inhalt. Du kannst mehr darüber in unseren Privaten und Cookie Politik lesen.